TimeMDT,TemperatureF,Dew PointF,Humidity,Sea Level PressureIn,VisibilityMPH,Wind Direction,Wind SpeedMPH,Gust SpeedMPH,PrecipitationIn,Events,Conditions,WindDirDegrees,DateUTC
12:53 AM,28.9,23.0,78,30.17,10.0,Calm,Calm,-,N/A,,Clear,0,2013-05-04 06:53:00
1:53 AM,28.9,24.1,82,30.16,10.0,North,5.8,-,N/A,,Clear,360,2013-05-04 07:53:00
2:53 AM,28.9,23.0,78,30.17,10.0,NNE,5.8,-,N/A,,Clear,20,2013-05-04 08:53:00
3:53 AM,27.0,23.0,85,30.17,10.0,NW,3.5,-,N/A,,Clear,320,2013-05-04 09:53:00
4:53 AM,28.0,21.9,78,30.17,10.0,Calm,Calm,-,N/A,,Clear,0,2013-05-04 10:53:00
5:53 AM,27.0,21.0,78,30.19,10.0,North,4.6,-,N/A,,Clear,360,2013-05-04 11:53:00
6:53 AM,32.0,24.1,73,30.20,10.0,Calm,Calm,-,N/A,,Clear,0,2013-05-04 12:53:00
7:53 AM,39.0,21.0,49,30.21,10.0,NNE,4.6,-,N/A,,Clear,20,2013-05-04 13:53:00
8:53 AM,44.1,16.0,32,30.21,10.0,North,8.1,-,N/A,,Clear,10,2013-05-04 14:53:00
9:53 AM,46.9,15.1,28,30.21,10.0,NNE,13.8,-,N/A,,Clear,20,2013-05-04 15:53:00
10:53 AM,50.0,16.0,26,30.21,10.0,NNE,10.4,-,N/A,,Clear,20,2013-05-04 16:53:00
11:53 AM,53.1,15.1,22,30.20,10.0,NE,12.7,19.6,N/A,,Clear,50,2013-05-04 17:53:00
12:53 PM,55.0,14.0,20,30.20,10.0,NNE,12.7,23.0,N/A,,Clear,30,2013-05-04 18:53:00
1:53 PM,54.0,14.0,21,30.19,10.0,NNE,15.0,20.7,N/A,,Clear,30,2013-05-04 19:53:00
2:53 PM,55.0,14.0,20,30.19,10.0,NNE,13.8,20.7,N/A,,Clear,20,2013-05-04 20:53:00
3:53 PM,57.0,14.0,18,30.18,10.0,NNE,18.4,21.9,N/A,,Clear,20,2013-05-04 21:53:00
4:53 PM,57.9,14.0,18,30.17,10.0,NNE,12.7,-,N/A,,Clear,20,2013-05-04 22:53:00
5:53 PM,55.0,14.0,20,30.19,10.0,NNE,13.8,-,N/A,,Clear,30,2013-05-04 23:53:00
6:53 PM,53.1,16.0,23,30.19,10.0,NE,11.5,-,N/A,,Clear,40,2013-05-05 00:53:00
7:53 PM,45.0,19.0,36,30.21,10.0,NNE,8.1,-,N/A,,Clear,30,2013-05-05 01:53:00
8:53 PM,37.9,19.9,48,30.24,10.0,NE,8.1,-,N/A,,Clear,40,2013-05-05 02:53:00
9:53 PM,34.0,23.0,64,30.25,10.0,ENE,5.8,-,N/A,,Clear,60,2013-05-05 03:53:00
10:53 PM,32.0,21.0,64,30.26,10.0,Calm,Calm,-,N/A,,Clear,0,2013-05-05 04:53:00
11:53 PM,26.1,21.0,81,30.28,10.0,West,4.6,-,N/A,,Clear,280,2013-05-05 05:53:00